Location: Unspecified
(0.0000°N, 0.0000°E)
Time: 10:18:12
(UTC+00:00)

AO-7 - Pass Details

Date: 29 September 2021
Orbit: 1439 x 1459 km, 101.9° (Epoch: 23 October)

Event Time Altitude Azimuth Distance (km) Brightness Sun altitude
Rises 02:14:46 0° 52° (NE) 4,521 ? -53.8°
Reaches altitude 10° 02:18:56 10° 72° (ENE) 3,545 ? -52.8°
Maximum altitude 02:23:37 16° 108° (ESE) 3,070 ? -51.6°
Drops below altitude 10° 02:28:18 10° 143° (SE) 3,552 ? -50.5°
Sets 02:32:25 0° 162° (SSE) 4,533 ? -49.4°
